Location: C.E.K. Mees Observatory
(42.7003°N, 77.4088°W)
Time: 10:41:01
(UTC-04:00)

ISS - Pass Details

Date: 12 October 2017
Orbit: 401 x 408 km, 51.6° (Epoch: 19 October)

Event Time Altitude Azimuth Distance (km) Brightness Sun altitude
Rises 19:33:27 0° 305° (NW) 2,324 1.0 -12.1°
Reaches altitude 10° 19:35:33 10° 309° (NW) 1,463 -0.2 -12.5°
Maximum altitude 19:38:48 59° 30° (NNE) 474 -3.7 -13.1°
Enters shadow 19:40:27 26° 102° (ESE) 848 -2.8 -13.4°
